Tracking 28790 objects as of 19-Apr-2024
HD Live streaming from Space Station
objects crossing your sky now

FENGYUN 1C DEB

Track FENGYUN 1C DEB now!
10-day predictions


NORAD ID: 30328
Int'l Code: 1999-025AAP
Perigee: 855.2 km
Apogee: 864.8 km
Inclination: 98.7 °
Period: 102.0 minutes
Semi major axis: 7231 km
RCS: 0.046 m2 (small)
Launch date: May 10, 1999
Source: People's Republic of China (PRC)
Launch site: Taiyaun Space Center, China (TSC)

Note: This is SATELLITE DEBRIS
Your satellite tracking list
Your tracking list is empty




NASA's NSSDC Master Catalog

Two Line Element Set (TLE):
1 30328U 99025AAP 24109.07883259  .00000603  00000-0  35320-3 0  9994
2 30328  98.7160 130.8832 0006644  82.3691 349.9944 14.11902772887440
Source of the keplerian elements: AFSPC